Skip navigation

Daily Weather Reports

[Select Refresh to Update]


Yesterday's Data File


7/26/14
Time

Wind Dir
 

Wind Spd
mph

Wind Gust
mph

Hum In
%

Humidity
%

Temp In
 F

Temp
 F

Raw Barom
in

Tot Rain
in

DailyRain
in

HourRain
in

24HrRain
in

RainRate
in/hr
12:00am 311 0 3 38 61 83.8 73.9 29.94 0.00 0.00 0.00 0.00 0.000
12:01am 311 0 0 38 61 83.8 73.9 29.93 0.00 0.00 0.00 0.00 0.000
12:02am 311 0 0 38 61 83.8 74.0 29.93 0.00 0.00 0.00 0.00 0.000
12:03am 311 0 0 38 61 83.8 74.0 29.93 0.00 0.00 0.00 0.00 0.000
12:04am 311 0 0 38 61 83.8 74.0 29.93 0.00 0.00 0.00 0.00 0.000
12:05am 311 1 1 38 61 83.8 74.0 29.93 0.00 0.00 0.00 0.00 0.000
12:06am 311 1 3 38 61 83.8 74.1 29.93 0.00 0.00 0.00 0.00 0.000
12:07am 311 1 3 38 61 83.8 74.1 29.93 0.00 0.00 0.00 0.00 0.000
12:08am 311 2 3 38 61 83.8 74.1 29.93 0.00 0.00 0.00 0.00 0.000
12:09am 311 0 3 38 61 83.6 74.1 29.93 0.00 0.00 0.00 0.00 0.000
12:10am 311 0 3 38 61 83.6 74.1 29.93 0.00 0.00 0.00 0.00 0.000
12:11am 311 0 3 38 61 83.6 74.0 29.93 0.00 0.00 0.00 0.00 0.000
12:12am 311 0 3 38 61 83.6 74.0 29.93 0.00 0.00 0.00 0.00 0.000
12:13am 311 1 3 38 61 83.6 73.9 29.93 0.00 0.00 0.00 0.00 0.000
12:14am 311 1 3 38 61 83.6 73.8 29.93 0.00 0.00 0.00 0.00 0.000
12:15am 311 1 3 38 61 83.6 73.8 29.93 0.00 0.00 0.00 0.00 0.000
12:16am 311 1 2 38 61 83.6 73.7 29.93 0.00 0.00 0.00 0.00 0.000
12:17am 311 1 2 38 61 83.6 73.7 29.93 0.00 0.00 0.00 0.00 0.000
12:18am 311 1 2 38 61 83.6 73.6 29.93 0.00 0.00 0.00 0.00 0.000
12:19am 311 1 2 38 61 83.6 73.6 29.93 0.00 0.00 0.00 0.00 0.000
12:20am 311 2 2 38 61 83.6 73.6 29.93 0.00 0.00 0.00 0.00 0.000
12:21am 311 1 2 38 61 83.6 73.6 29.93 0.00 0.00 0.00 0.00 0.000
12:22am 311 0 2 38 61 83.6 73.6 29.93 0.00 0.00 0.00 0.00 0.000
12:23am 311 1 2 38 62 83.6 73.6 29.93 0.00 0.00 0.00 0.00 0.000
12:24am 311 2 2 38 62 83.6 73.6 29.92 0.00 0.00 0.00 0.00 0.000
12:25am 311 2 2 38 62 83.6 73.6 29.92 0.00 0.00 0.00 0.00 0.000
12:26am 311 1 2 38 62 83.4 73.6 29.92 0.00 0.00 0.00 0.00 0.000
12:27am 311 0 2 38 61 83.4 73.6 29.92 0.00 0.00 0.00 0.00 0.000
12:28am 311 1 2 38 61 83.4 73.6 29.92 0.00 0.00 0.00 0.00 0.000
12:29am 311 1 2 38 61 83.4 73.6 29.92 0.00 0.00 0.00 0.00 0.000
12:30am 311 0 2 38 61 83.4 73.6 29.92 0.00 0.00 0.00 0.00 0.000
12:31am 311 0 0 38 61 83.4 73.6 29.93 0.00 0.00 0.00 0.00 0.000
12:32am 311 0 0 38 61 83.4 73.6 29.93 0.00 0.00 0.00 0.00 0.000
12:33am 311 0 0 38 62 83.4 73.6 29.93 0.00 0.00 0.00 0.00 0.000
12:34am 311 0 0 38 62 83.4 73.6 29.92 0.00 0.00 0.00 0.00 0.000
12:35am 311 0 0 38 62 83.4 73.6 29.92 0.00 0.00 0.00 0.00 0.000
12:36am 311 0 0 38 62 83.4 73.6 29.92 0.00 0.00 0.00 0.00 0.000
12:37am 311 0 0 38 62 83.4 73.6 29.92 0.00 0.00 0.00 0.00 0.000
12:38am 311 0 0 38 62 83.2 73.6 29.92 0.00 0.00 0.00 0.00 0.000
12:39am 311 0 0 38 62 83.2 73.6 29.92 0.00 0.00 0.00 0.00 0.000
12:40am 311 0 0 38 62 83.2 73.6 29.92 0.00 0.00 0.00 0.00 0.000
12:41am 311 0 0 38 63 83.2 73.7 29.92 0.00 0.00 0.00 0.00 0.000
12:42am 311 0 0 38 63 83.2 73.7 29.92 0.00 0.00 0.00 0.00 0.000
12:43am 311 0 0 38 63 83.2 73.6 29.92 0.00 0.00 0.00 0.00 0.000
12:44am 311 0 0 38 62 83.2 73.6 29.92 0.00 0.00 0.00 0.00 0.000
12:45am 311 0 0 38 62 83.2 73.6 29.92 0.00 0.00 0.00 0.00 0.000
12:46am 311 0 0 38 62 83.2 73.7 29.92 0.00 0.00 0.00 0.00 0.000
12:47am 311 0 0 38 61 83.2 73.6 29.92 0.00 0.00 0.00 0.00 0.000
12:48am 311 0 1 38 61 83.2 73.6 29.92 0.00 0.00 0.00 0.00 0.000
12:49am 311 1 1 38 61 83.2 73.4 29.92 0.00 0.00 0.00 0.00 0.000
12:50am 311 0 1 38 60 83.2 73.3 29.93 0.00 0.00 0.00 0.00 0.000
12:51am 311 1 1 39 60 83.2 73.1 29.93 0.00 0.00 0.00 0.00 0.000
12:52am 311 0 1 39 60 83.2 72.9 29.93 0.00 0.00 0.00 0.00 0.000
12:53am 311 0 1 39 61 83.2 72.8 29.93 0.00 0.00 0.00 0.00 0.000
12:54am 311 0 1 39 61 83.2 72.8 29.93 0.00 0.00 0.00 0.00 0.000
12:55am 311 0 1 39 61 83.0 72.8 29.93 0.00 0.00 0.00 0.00 0.000
12:56am 311 0 1 39 62 83.0 72.8 29.93 0.00 0.00 0.00 0.00 0.000
12:57am 311 0 1 39 62 83.0 72.9 29.93 0.00 0.00 0.00 0.00 0.000
12:58am 311 0 1 39 62 83.0 73.0 29.93 0.00 0.00 0.00 0.00 0.000
12:59am 311 1 1 39 62 83.0 73.1 29.93 0.00 0.00 0.00 0.00 0.000
1:00am 311 1 2 39 62 83.0 73.1 29.92 0.00 0.00 0.00 0.00 0.000
1:01am 311 0 1 39 61 83.0 73.1 29.92 0.00 0.00 0.00 0.00 0.000
1:02am 311 0 1 39 61 83.0 73.1 29.92 0.00 0.00 0.00 0.00 0.000
1:03am 311 0 1 39 61 83.0 73.1 29.92 0.00 0.00 0.00 0.00 0.000
1:04am 311 0 1 39 61 83.0 73.1 29.92 0.00 0.00 0.00 0.00 0.000
1:05am 311 0 1 39 62 83.0 73.1 29.92 0.00 0.00 0.00 0.00 0.000
1:06am 311 0 1 39 62 83.0 73.1 29.92 0.00 0.00 0.00 0.00 0.000
1:07am 311 0 1 39 62 83.0 73.1 29.92 0.00 0.00 0.00 0.00 0.000
1:08am 311 0 1 39 62 83.0 73.1 29.92 0.00 0.00 0.00 0.00 0.000
1:09am 311 1 1 39 62 83.0 73.2 29.92 0.00 0.00 0.00 0.00 0.000
1:10am 311 3 3 39 62 83.0 73.2 29.92 0.00 0.00 0.00 0.00 0.000
1:11am 311 2 3 39 62 83.0 73.2 29.92 0.00 0.00 0.00 0.00 0.000
1:12am 311 3 3 39 62 83.0 73.1 29.92 0.00 0.00 0.00 0.00 0.000
1:13am 311 2 3 39 61 83.0 73.0 29.92 0.00 0.00 0.00 0.00 0.000
1:14am 311 0 3 39 61 83.0 72.9 29.92 0.00 0.00 0.00 0.00 0.000
1:15am 311 0 3 39 61 83.0 72.8 29.92 0.00 0.00 0.00 0.00 0.000
1:16am 311 0 0 39 61 83.0 72.8 29.92 0.00 0.00 0.00 0.00 0.000
1:17am 311 0 0 38 61 83.0 72.7 29.92 0.00 0.00 0.00 0.00 0.000
1:17am 311 0 0 38 62 83.0 72.7 29.92 0.00 0.00 0.00 0.00 0.000
1:19am 311 0 0 38 62 82.9 72.8 29.92 0.00 0.00 0.00 0.00 0.000
1:20am 311 0 0 38 62 82.9 72.8 29.92 0.00 0.00 0.00 0.00 0.000
1:21am 311 0 0 38 62 82.9 72.9 29.92 0.00 0.00 0.00 0.00 0.000
1:22am 311 0 0 38 62 82.9 72.9 29.92 0.00 0.00 0.00 0.00 0.000
1:23am 311 0 0 38 62 82.9 73.0 29.92 0.00 0.00 0.00 0.00 0.000
1:23am 311 0 1 38 63 82.9 73.1 29.92 0.00 0.00 0.00 0.00 0.000
1:25am 311 0 1 38 63 82.9 73.3 29.92 0.00 0.00 0.00 0.00 0.000
1:26am 312 1 2 39 63 82.9 73.4 29.92 0.00 0.00 0.00 0.00 0.000
1:27am 69 1 3 39 63 82.9 73.6 29.92 0.00 0.00 0.00 0.00 0.000
1:28am 69 2 3 39 63 82.9 73.7 29.92 0.00 0.00 0.00 0.00 0.000
1:29am 69 3 3 39 63 82.9 73.8 29.92 0.00 0.00 0.00 0.00 0.000
1:30am 69 1 3 39 63 82.7 73.9 29.92 0.00 0.00 0.00 0.00 0.000
1:31am 69 0 3 39 63 82.7 73.9 29.92 0.00 0.00 0.00 0.00 0.000
1:32am 69 1 3 39 63 82.7 74.0 29.92 0.00 0.00 0.00 0.00 0.000
1:33am 69 0 3 39 63 82.7 74.1 29.92 0.00 0.00 0.00 0.00 0.000
1:34am 69 1 3 39 63 82.7 74.2 29.92 0.00 0.00 0.00 0.00 0.000
1:35am 69 0 3 39 62 82.7 74.2 29.92 0.00 0.00 0.00 0.00 0.000
1:36am 69 0 3 39 62 82.7 74.3 29.92 0.00 0.00 0.00 0.00 0.000
1:37am 69 0 3 39 62 82.7 74.3 29.92 0.00 0.00 0.00 0.00 0.000
1:38am 69 0 3 39 62 82.7 74.3 29.92 0.00 0.00 0.00 0.00 0.000
1:39am 69 0 3 39 62 82.7 74.3 29.92 0.00 0.00 0.00 0.00 0.000
1:39am 69 1 3 39 62 82.7 74.2 29.92 0.00 0.00 0.00 0.00 0.000
1:41am 72 0 3 39 62 82.7 74.2 29.92 0.00 0.00 0.00 0.00 0.000
1:42am 72 0 3 39 62 82.7 74.2 29.92 0.00 0.00 0.00 0.00 0.000
1:43am 72 0 3 39 62 82.7 74.2 29.92 0.00 0.00 0.00 0.00 0.000
1:44am 72 0 3 39 62 82.7 74.2 29.92 0.00 0.00 0.00 0.00 0.000
1:45am 72 0 3 39 63 82.7 74.2 29.92 0.00 0.00 0.00 0.00 0.000
1:46am 72 0 1 39 63 82.5 74.2 29.92 0.00 0.00 0.00 0.00 0.000
1:47am 72 0 1 39 63 82.5 74.1 29.92 0.00 0.00 0.00 0.00 0.000
1:48am 72 0 1 39 63 82.5 74.1 29.92 0.00 0.00 0.00 0.00 0.000
1:49am 72 0 1 39 63 82.5 74.1 29.92 0.00 0.00 0.00 0.00 0.000
1:50am 72 0 1 39 63 82.5 74.1 29.92 0.00 0.00 0.00 0.00 0.000
1:51am 72 0 1 39 63 82.5 74.1 29.92 0.00 0.00 0.00 0.00 0.000
1:52am 72 0 1 39 63 82.5 74.1 29.92 0.00 0.00 0.00 0.00 0.000
1:53am 72 0 1 39 63 82.5 74.1 29.92 0.00 0.00 0.00 0.00 0.000
1:54am 72 0 1 39 63 82.5 74.0 29.92 0.00 0.00 0.00 0.00 0.000
1:55am 72 0 1 39 63 82.5 74.0 29.92 0.00 0.00 0.00 0.00 0.000
1:56am 72 0 1 39 63 82.5 74.0 29.92 0.00 0.00 0.00 0.00 0.000
1:57am 72 0 1 39 63 82.5 74.0 29.92 0.00 0.00 0.00 0.00 0.000
1:58am 72 0 1 39 63 82.5 74.0 29.92 0.00 0.00 0.00 0.00 0.000
1:59am 72 0 1 39 63 82.5 74.0 29.92 0.00 0.00 0.00 0.00 0.000
2:00am 72 0 1 39 63 82.5 74.0 29.92 0.00 0.00 0.00 0.00 0.000
2:01am 70 3 3 39 63 82.5 74.0 29.92 0.00 0.00 0.00 0.00 0.000
2:02am 70 2 3 39 62 82.5 73.9 29.92 0.00 0.00 0.00 0.00 0.000
2:03am 70 2 3 40 62 82.5 73.8 29.92 0.00 0.00 0.00 0.00 0.000
2:04am 29 3 3 39 62 82.5 73.8 29.92 0.00 0.00 0.00 0.00 0.000
2:05am 29 1 3 39 62 82.5 73.7 29.92 0.00 0.00 0.00 0.00 0.000
2:06am 29 1 3 39 62 82.5 73.6 29.92 0.00 0.00 0.00 0.00 0.000
2:07am 29 2 3 40 62 82.5 73.5 29.92 0.00 0.00 0.00 0.00 0.000
2:08am 29 2 3 40 62 82.5 73.3 29.92 0.00 0.00 0.00 0.00 0.000
2:09am 23 3 3 40 63 82.5 73.2 29.92 0.00 0.00 0.00 0.00 0.000
2:10am 21 2 3 40 63 82.5 73.1 29.92 0.00 0.00 0.00 0.00 0.000
2:11am 21 2 3 40 63 82.5 73.0 29.92 0.00 0.00 0.00 0.00 0.000
2:12am 20 1 3 40 63 82.5 72.9 29.92 0.00 0.00 0.00 0.00 0.000
2:13am 21 0 3 40 63 82.5 72.8 29.92 0.00 0.00 0.00 0.00 0.000
2:14am 21 0 3 40 63 82.5 72.7 29.92 0.00 0.00 0.00 0.00 0.000
2:15am 20 0 3 40 63 82.5 72.6 29.92 0.00 0.00 0.00 0.00 0.000
2:16am 20 0 0 40 64 82.5 72.5 29.92 0.00 0.00 0.00 0.00 0.000
2:17am 20 0 0 40 64 82.5 72.5 29.92 0.00 0.00 0.00 0.00 0.000
2:18am 21 0 0 40 64 82.5 72.4 29.92 0.00 0.00 0.00 0.00 0.000
2:19am 21 0 1 40 64 82.5 72.4 29.92 0.00 0.00 0.00 0.00 0.000
2:20am 21 0 1 39 65 82.5 72.4 29.92 0.00 0.00 0.00 0.00 0.000
2:21am 21 0 1 39 65 82.3 72.3 29.92 0.00 0.00 0.00 0.00 0.000
2:22am 20 0 1 39 65 82.3 72.3 29.92 0.00 0.00 0.00 0.00 0.000
2:23am 20 0 1 39 65 82.3 72.3 29.92 0.00 0.00 0.00 0.00 0.000
2:24am 20 0 1 39 65 82.3 72.4 29.92 0.00 0.00 0.00 0.00 0.000
2:25am 21 0 1 39 65 82.3 72.4 29.92 0.00 0.00 0.00 0.00 0.000
2:26am 21 0 1 39 65 82.3 72.4 29.92 0.00 0.00 0.00 0.00 0.000
2:27am 21 0 1 39 65 82.3 72.4 29.92 0.00 0.00 0.00 0.00 0.000
2:28am 21 2 3 39 65 82.3 72.4 29.92 0.00 0.00 0.00 0.00 0.000
2:29am 21 2 3 39 65 82.3 72.4 29.92 0.00 0.00 0.00 0.00 0.000
2:30am 20 1 3 39 64 82.3 72.3 29.92 0.00 0.00 0.00 0.00 0.000
2:31am 20 1 2 40 64 82.3 72.2 29.92 0.00 0.00 0.00 0.00 0.000
2:32am 21 1 2 40 64 82.3 72.1 29.92 0.00 0.00 0.00 0.00 0.000
2:33am 21 2 3 40 64 82.3 72.0 29.92 0.00 0.00 0.00 0.00 0.000
2:34am 21 1 3 40 64 82.3 71.9 29.92 0.00 0.00 0.00 0.00 0.000
2:35am 21 2 3 40 64 82.3 71.8 29.92 0.00 0.00 0.00 0.00 0.000
2:36am 20 1 3 40 65 82.1 71.7 29.92 0.00 0.00 0.00 0.00 0.000
2:37am 20 2 3 40 65 82.1 71.6 29.92 0.00 0.00 0.00 0.00 0.000
2:38am 21 1 3 40 65 82.1 71.6 29.92 0.00 0.00 0.00 0.00 0.000
2:39am 21 1 3 40 65 82.1 71.6 29.92 0.00 0.00 0.00 0.00 0.000
2:40am 21 1 3 40 65 82.1 71.6 29.92 0.00 0.00 0.00 0.00 0.000
2:41am 21 0 3 40 65 82.1 71.6 29.92 0.00 0.00 0.00 0.00 0.000
2:42am 20 0 3 40 65 82.1 71.5 29.92 0.00 0.00 0.00 0.00 0.000
2:43am 20 0 3 40 65 82.1 71.5 29.92 0.00 0.00 0.00 0.00 0.000
2:44am 21 0 3 40 65 82.1 71.5 29.92 0.00 0.00 0.00 0.00 0.000
2:45am 21 0 3 40 65 82.1 71.5 29.92 0.00 0.00 0.00 0.00 0.000
2:46am 21 0 0 40 65 82.1 71.5 29.92 0.00 0.00 0.00 0.00 0.000
2:47am 21 0 0 40 66 82.1 71.5 29.92 0.00 0.00 0.00 0.00 0.000
2:48am 20 0 0 40 66 82.1 71.5 29.92 0.00 0.00 0.00 0.00 0.000
2:49am 20 0 0 40 66 82.1 71.6 29.92 0.00 0.00 0.00 0.00 0.000
2:50am 20 0 0 40 66 82.1 71.6 29.92 0.00 0.00 0.00 0.00 0.000
2:51am 21 0 1 40 66 82.1 71.6 29.92 0.00 0.00 0.00 0.00 0.000
2:52am 21 0 1 40 66 82.1 71.6 29.92 0.00 0.00 0.00 0.00 0.000
2:53am 20 0 1 40 66 82.1 71.6 29.92 0.00 0.00 0.00 0.00 0.000
2:54am 20 0 1 40 65 82.1 71.6 29.92 0.00 0.00 0.00 0.00 0.000
2:55am 21 0 1 40 65 82.1 71.6 29.92 0.00 0.00 0.00 0.00 0.000
2:56am 20 0 1 40 65 82.1 71.6 29.92 0.00 0.00 0.00 0.00 0.000
2:57am 20 0 1 40 65 82.1 71.6 29.92 0.00 0.00 0.00 0.00 0.000
2:58am 21 0 1 40 65 82.1 71.6 29.92 0.00 0.00 0.00 0.00 0.000
2:59am 21 0 1 40 65 82.1 71.6 29.92 0.00 0.00 0.00 0.00 0.000
3:00am 21 0 1 40 65 82.1 71.6 29.92 0.00 0.00 0.00 0.00 0.000
3:01am 20 0 0 40 65 82.1 71.6 29.92 0.00 0.00 0.00 0.00 0.000
3:02am 21 0 0 40 65 81.9 71.6 29.92 0.00 0.00 0.00 0.00 0.000
3:03am 21 0 0 40 65 81.9 71.6 29.92 0.00 0.00 0.00 0.00 0.000
3:04am 20 0 0 40 65 81.9 71.7 29.92 0.00 0.00 0.00 0.00 0.000
3:05am 20 0 0 40 65 81.9 71.7 29.92 0.00 0.00 0.00 0.00 0.000
3:06am 20 0 0 40 65 81.9 71.8 29.92 0.00 0.00 0.00 0.00 0.000
3:07am 21 0 0 40 65 81.9 71.9 29.92 0.00 0.00 0.00 0.00 0.000
3:08am 21 0 0 40 65 81.9 72.0 29.92 0.00 0.00 0.00 0.00 0.000
3:09am 20 0 0 40 65 81.9 72.0 29.92 0.00 0.00 0.00 0.00 0.000
3:10am 21 0 1 40 65 81.9 72.0 29.92 0.00 0.00 0.00 0.00 0.000
3:11am 20 0 1 40 65 81.9 72.0 29.92 0.00 0.00 0.00 0.00 0.000
3:12am 21 0 1 40 65 81.9 72.0 29.92 0.00 0.00 0.00 0.00 0.000
3:13am 21 0 1 40 65 81.9 72.0 29.92 0.00 0.00 0.00 0.00 0.000
3:13am 21 0 1 40 66 81.9 72.1 29.92 0.00 0.00 0.00 0.00 0.000
3:15am 21 0 1 40 66 81.9 72.1 29.92 0.00 0.00 0.00 0.00 0.000
3:16am 21 0 0 40 66 81.9 72.1 29.92 0.00 0.00 0.00 0.00 0.000
3:17am 20 0 0 40 66 81.9 72.1 29.92 0.00 0.00 0.00 0.00 0.000
3:18am 20 0 0 40 66 81.9 72.1 29.92 0.00 0.00 0.00 0.00 0.000
3:19am 21 0 0 40 66 81.9 72.0 29.92 0.00 0.00 0.00 0.00 0.000
3:20am 21 0 0 40 66 81.9 72.0 29.92 0.00 0.00 0.00 0.00 0.000
3:21am 21 0 0 40 66 81.9 72.0 29.92 0.00 0.00 0.00 0.00 0.000
3:22am 21 3 3 40 66 81.9 72.0 29.92 0.00 0.00 0.00 0.00 0.000
3:23am 20 2 3 40 65 81.9 71.8 29.92 0.00 0.00 0.00 0.00 0.000
3:24am 20 2 3 40 65 81.9 71.6 29.92 0.00 0.00 0.00 0.00 0.000
3:25am 21 1 3 40 64 81.9 71.6 29.92 0.00 0.00 0.00 0.00 0.000
3:26am 21 1 3 40 64 81.9 71.3 29.92 0.00 0.00 0.00 0.00 0.000
3:27am 21 1 3 40 64 81.9 71.1 29.92 0.00 0.00 0.00 0.00 0.000
3:28am 21 2 3 40 64 81.9 70.9 29.92 0.00 0.00 0.00 0.00 0.000
3:29am 21 2 3 40 64 81.9 70.8 29.92 0.00 0.00 0.00 0.00 0.000
3:30am 20 1 3 40 64 81.9 70.6 29.92 0.00 0.00 0.00 0.00 0.000
3:31am 20 0 2 40 65 81.9 70.6 29.92 0.00 0.00 0.00 0.00 0.000
3:31am 21 0 2 40 65 81.9 70.5 29.92 0.00 0.00 0.00 0.00 0.000
3:33am 21 0 2 40 65 81.9 70.5 29.92 0.00 0.00 0.00 0.00 0.000
3:34am 21 0 2 40 65 81.9 70.5 29.92 0.00 0.00 0.00 0.00 0.000
3:35am 21 0 2 40 65 81.9 70.6 29.92 0.00 0.00 0.00 0.00 0.000
3:36am 20 0 2 40 65 81.9 70.6 29.92 0.00 0.00 0.00 0.00 0.000
3:37am 20 0 2 40 65 81.7 70.7 29.92 0.00 0.00 0.00 0.00 0.000
3:38am 20 0 2 40 65 81.7 70.8 29.92 0.00 0.00 0.00 0.00 0.000
3:39am 21 0 2 40 65 81.7 71.0 29.92 0.00 0.00 0.00 0.00 0.000
3:40am 20 0 2 40 65 81.7 71.1 29.92 0.00 0.00 0.00 0.00 0.000
3:41am 21 0 2 40 65 81.7 71.2 29.92 0.00 0.00 0.00 0.00 0.000
3:42am 20 0 2 40 65 81.7 71.3 29.92 0.00 0.00 0.00 0.00 0.000
3:43am 21 0 2 40 65 81.7 71.3 29.92 0.00 0.00 0.00 0.00 0.000
3:44am 20 0 2 40 65 81.7 71.4 29.92 0.00 0.00 0.00 0.00 0.000
3:45am 20 0 2 40 65 81.7 71.6 29.92 0.00 0.00 0.00 0.00 0.000
3:46am 20 0 0 40 65 81.7 71.6 29.92 0.00 0.00 0.00 0.00 0.000
3:47am 20 0 0 40 64 81.7 71.6 29.92 0.00 0.00 0.00 0.00 0.000
3:48am 21 0 0 40 64 81.7 71.6 29.92 0.00 0.00 0.00 0.00 0.000
3:49am 21 0 0 40 64 81.7 71.6 29.92 0.00 0.00 0.00 0.00 0.000
3:50am 21 0 0 40 64 81.7 71.6 29.92 0.00 0.00 0.00 0.00 0.000
3:50am 21 0 1 40 64 81.7 71.6 29.92 0.00 0.00 0.00 0.00 0.000
3:52am 20 0 1 40 64 81.7 71.7 29.92 0.00 0.00 0.00 0.00 0.000
3:53am 20 1 1 40 64 81.7 71.8 29.92 0.00 0.00 0.00 0.00 0.000
3:54am 21 0 1 40 64 81.7 71.9 29.92 0.00 0.00 0.00 0.00 0.000
3:55am 21 1 1 40 64 81.7 72.0 29.92 0.00 0.00 0.00 0.00 0.000
3:56am 21 0 1 40 64 81.5 72.0 29.92 0.00 0.00 0.00 0.00 0.000
3:57am 21 0 1 40 64 81.5 72.1 29.92 0.00 0.00 0.00 0.00 0.000
3:58am 20 0 1 40 63 81.5 72.1 29.92 0.00 0.00 0.00 0.00 0.000
3:59am 20 0 1 40 63 81.5 72.1 29.92 0.00 0.00 0.00 0.00 0.000
4:00am 21 0 1 40 63 81.5 72.1 29.92 0.00 0.00 0.00 0.00 0.000
4:01am 21 0 0 40 63 81.5 72.1 29.92 0.00 0.00 0.00 0.00 0.000
4:02am 21 0 0 40 63 81.5 72.2 29.92 0.00 0.00 0.00 0.00 0.000
4:03am 21 0 0 40 63 81.5 72.2 29.92 0.00 0.00 0.00 0.00 0.000
4:04am 21 0 0 40 63 81.5 72.2 29.92 0.00 0.00 0.00 0.00 0.000
4:05am 20 0 1 40 63 81.5 72.2 29.92 0.00 0.00 0.00 0.00 0.000
4:06am 21 0 1 40 63 81.5 72.2 29.92 0.00 0.00 0.00 0.00 0.000
4:07am 21 0 1 40 63 81.5 72.2 29.92 0.00 0.00 0.00 0.00 0.000
4:08am 21 0 1 40 63 81.5 72.2 29.92 0.00 0.00 0.00 0.00 0.000
4:09am 21 0 1 40 63 81.5 72.2 29.92 0.00 0.00 0.00 0.00 0.000
4:10am 21 0 1 40 63 81.5 72.1 29.92 0.00 0.00 0.00 0.00 0.000
4:11am 21 0 1 41 63 81.5 72.1 29.92 0.00 0.00 0.00 0.00 0.000
4:12am 20 0 1 41 63 81.5 72.0 29.92 0.00 0.00 0.00 0.00 0.000
4:12am 21 0 1 41 63 81.5 72.0 29.92 0.00 0.00 0.00 0.00 0.000
4:14am 21 0 1 41 63 81.5 72.0 29.92 0.00 0.00 0.00 0.00 0.000
4:15am 21 0 1 41 63 81.5 72.0 29.92 0.00 0.00 0.00 0.00 0.000
4:16am 21 0 1 41 63 81.5 71.9 29.92 0.00 0.00 0.00 0.00 0.000
4:17am 20 0 1 41 63 81.5 71.9 29.92 0.00 0.00 0.00 0.00 0.000
4:18am 20 0 1 41 63 81.5 71.9 29.92 0.00 0.00 0.00 0.00 0.000
4:19am 20 0 1 41 63 81.5 72.0 29.92 0.00 0.00 0.00 0.00 0.000
4:20am 21 0 1 41 63 81.5 72.0 29.92 0.00 0.00 0.00 0.00 0.000
4:21am 20 0 1 41 63 81.5 72.1 29.92 0.00 0.00 0.00 0.00 0.000
4:22am 21 0 1 41 63 81.5 72.2 29.92 0.00 0.00 0.00 0.00 0.000
4:23am 21 0 1 41 63 81.5 72.2 29.92 0.00 0.00 0.00 0.00 0.000
4:24am 21 0 1 41 63 81.5 72.2 29.92 0.00 0.00 0.00 0.00 0.000
4:25am 20 0 1 41 63 81.5 72.2 29.92 0.00 0.00 0.00 0.00 0.000
4:26am 21 0 1 41 63 81.5 72.3 29.92 0.00 0.00 0.00 0.00 0.000
4:27am 20 0 1 41 63 81.5 72.3 29.92 0.00 0.00 0.00 0.00 0.000
4:28am 21 0 1 41 63 81.5 72.3 29.92 0.00 0.00 0.00 0.00 0.000
4:29am 21 0 1 41 63 81.5 72.3 29.92 0.00 0.00 0.00 0.00 0.000
4:29am 20 0 1 41 63 81.5 72.3 29.92 0.00 0.00 0.00 0.00 0.000
4:31am 21 0 0 41 64 81.5 72.3 29.92 0.00 0.00 0.00 0.00 0.000
4:32am 20 0 0 41 64 81.5 72.4 29.92 0.00 0.00 0.00 0.00 0.000
4:33am 20 0 0 41 64 81.5 72.4 29.92 0.00 0.00 0.00 0.00 0.000
4:34am 20 0 0 41 64 81.5 72.5 29.92 0.00 0.00 0.00 0.00 0.000
4:35am 21 0 0 41 64 81.5 72.5 29.92 0.00 0.00 0.00 0.00 0.000
4:36am 21 0 0 41 64 81.5 72.5 29.92 0.00 0.00 0.00 0.00 0.000
4:37am 21 0 0 41 65 81.5 72.5 29.92 0.00 0.00 0.00 0.00 0.000
4:38am 21 0 0 41 65 81.5 72.5 29.92 0.00 0.00 0.00 0.00 0.000
4:39am 20 0 0 41 65 81.5 72.5 29.92 0.00 0.00 0.00 0.00 0.000
4:40am 20 0 0 41 64 81.5 72.5 29.92 0.00 0.00 0.00 0.00 0.000
4:41am 21 0 0 41 64 81.5 72.5 29.92 0.00 0.00 0.00 0.00 0.000
4:42am 21 0 0 41 64 81.4 72.4 29.92 0.00 0.00 0.00 0.00 0.000
4:43am 21 2 2 41 64 81.4 72.4 29.92 0.00 0.00 0.00 0.00 0.000
4:44am 21 1 2 41 64 81.4 72.3 29.92 0.00 0.00 0.00 0.00 0.000
4:45am 20 2 2 41 64 81.4 72.3 29.92 0.00 0.00 0.00 0.00 0.000
4:46am 20 2 3 41 63 81.4 72.2 29.92 0.00 0.00 0.00 0.00 0.000
4:47am 21 1 3 41 63 81.4 72.1 29.92 0.00 0.00 0.00 0.00 0.000
4:48am 21 2 3 40 63 81.4 71.9 29.92 0.00 0.00 0.00 0.00 0.000
4:49am 21 2 3 40 63 81.4 71.8 29.92 0.00 0.00 0.00 0.00 0.000
4:50am 21 2 3 40 63 81.4 71.7 29.92 0.00 0.00 0.00 0.00 0.000
4:51am 21 2 3 40 63 81.4 71.6 29.92 0.00 0.00 0.00 0.00 0.000
4:52am 21 3 3 40 63 81.4 71.6 29.92 0.00 0.00 0.00 0.00 0.000
4:53am 20 2 3 40 63 81.4 71.4 29.92 0.00 0.00 0.00 0.00 0.000
4:54am 21 1 3 40 63 81.4 71.4 29.92 0.00 0.00 0.00 0.00 0.000
4:55am 21 0 3 40 63 81.4 71.3 29.92 0.00 0.00 0.00 0.00 0.000
4:56am 21 0 3 40 64 81.4 71.2 29.92 0.00 0.00 0.00 0.00 0.000
4:57am 21 0 3 41 64 81.4 71.2 29.92 0.00 0.00 0.00 0.00 0.000
4:58am 21 0 3 41 64 81.4 71.1 29.92 0.00 0.00 0.00 0.00 0.000
4:59am 20 1 3 41 64 81.4 71.1 29.92 0.00 0.00 0.00 0.00 0.000
5:00am 20 0 3 41 64 81.4 71.1 29.92 0.00 0.00 0.00 0.00 0.000
5:01am 21 0 1 41 64 81.4 71.0 29.92 0.00 0.00 0.00 0.00 0.000
5:02am 20 2 2 41 64 81.4 70.9 29.92 0.00 0.00 0.00 0.00 0.000
5:03am 21 2 2 41 64 81.4 70.8 29.92 0.00 0.00 0.00 0.00 0.000
5:04am 21 2 2 41 64 81.4 70.7 29.92 0.00 0.00 0.00 0.00 0.000
5:05am 21 1 2 41 64 81.4 70.7 29.92 0.00 0.00 0.00 0.00 0.000
5:06am 21 1 2 41 64 81.4 70.6 29.92 0.00 0.00 0.00 0.00 0.000
5:07am 21 1 2 41 64 81.2 70.6 29.92 0.00 0.00 0.00 0.00 0.000
5:08am 20 2 2 41 65 81.2 70.5 29.92 0.00 0.00 0.00 0.00 0.000
5:09am 21 2 2 41 65 81.2 70.5 29.92 0.00 0.00 0.00 0.00 0.000
5:10am 21 2 2 41 65 81.2 70.6 29.92 0.00 0.00 0.00 0.00 0.000
5:11am 21 1 2 41 65 81.2 70.7 29.92 0.00 0.00 0.00 0.00 0.000
5:12am 21 0 2 41 65 81.2 70.8 29.92 0.00 0.00 0.00 0.00 0.000
5:13am 20 0 2 41 65 81.2 70.9 29.92 0.00 0.00 0.00 0.00 0.000
5:14am 20 0 2 41 65 81.2 71.1 29.92 0.00 0.00 0.00 0.00 0.000
5:15am 20 0 2 41 65 81.2 71.2 29.92 0.00 0.00 0.00 0.00 0.000
5:16am 21 0 1 41 65 81.2 71.4 29.93 0.00 0.00 0.00 0.00 0.000
5:17am 21 0 1 41 65 81.2 71.5 29.93 0.00 0.00 0.00 0.00 0.000
5:18am 21 0 1 41 65 81.2 71.6 29.93 0.00 0.00 0.00 0.00 0.000
5:19am 20 0 1 41 65 81.2 71.6 29.93 0.00 0.00 0.00 0.00 0.000
5:20am 20 0 1 41 65 81.2 71.6 29.93 0.00 0.00 0.00 0.00 0.000
5:21am 21 0 1 41 64 81.2 71.7 29.93 0.00 0.00 0.00 0.00 0.000
5:22am 21 0 1 41 64 81.2 71.6 29.93 0.00 0.00 0.00 0.00 0.000
5:23am 21 0 1 41 64 81.2 71.6 29.93 0.00 0.00 0.00 0.00 0.000
5:24am 21 0 1 41 64 81.2 71.6 29.93 0.00 0.00 0.00 0.00 0.000
5:25am 21 0 1 41 64 81.2 71.6 29.93 0.00 0.00 0.00 0.00 0.000
5:26am 21 1 1 41 63 81.2 71.5 29.93 0.00 0.00 0.00 0.00 0.000
5:27am 20 0 1 41 64 81.2 71.4 29.93 0.00 0.00 0.00 0.00 0.000
5:28am 21 1 1 41 64 81.2 71.4 29.93 0.00 0.00 0.00 0.00 0.000
5:29am 21 1 2 41 63 81.2 71.3 29.93 0.00 0.00 0.00 0.00 0.000
5:30am 21 1 2 41 64 81.2 71.3 29.93 0.00 0.00 0.00 0.00 0.000
5:31am 21 2 2 41 64 81.2 71.2 29.93 0.00 0.00 0.00 0.00 0.000
5:32am 20 2 2 41 64 81.2 71.1 29.93 0.00 0.00 0.00 0.00 0.000
5:33am 21 2 3 41 64 81.2 71.1 29.93 0.00 0.00 0.00 0.00 0.000
5:34am 20 2 3 41 63 81.2 70.9 29.93 0.00 0.00 0.00 0.00 0.000
5:34am 21 2 3 41 63 81.2 70.8 29.93 0.00 0.00 0.00 0.00 0.000
5:36am 21 3 3 41 63 81.2 70.7 29.93 0.00 0.00 0.00 0.00 0.000
5:37am 20 3 3 41 63 81.2 70.6 29.93 0.00 0.00 0.00 0.00 0.000
5:38am 21 2 3 41 63 81.2 70.5 29.93 0.00 0.00 0.00 0.00 0.000
5:39am 21 2 3 41 63 81.2 70.4 29.93 0.00 0.00 0.00 0.00 0.000
5:40am 21 2 3 41 64 81.2 70.4 29.94 0.00 0.00 0.00 0.00 0.000
5:41am 20 1 3 41 64 81.2 70.3 29.94 0.00 0.00 0.00 0.00 0.000
5:42am 20 0 3 41 64 81.2 70.2 29.94 0.00 0.00 0.00 0.00 0.000
5:43am 20 0 3 41 64 81.2 70.2 29.94 0.00 0.00 0.00 0.00 0.000
5:44am 21 0 3 41 64 81.2 70.2 29.94 0.00 0.00 0.00 0.00 0.000
5:45am 21 0 3 41 65 81.2 70.2 29.94 0.00 0.00 0.00 0.00 0.000
5:46am 21 0 0 41 65 81.2 70.2 29.94 0.00 0.00 0.00 0.00 0.000
5:47am 21 0 0 41 65 81.2 70.3 29.94 0.00 0.00 0.00 0.00 0.000
5:48am 20 0 0 41 65 81.2 70.4 29.94 0.00 0.00 0.00 0.00 0.000
5:49am 20 0 0 41 65 81.2 70.4 29.94 0.00 0.00 0.00 0.00 0.000
5:50am 20 0 0 41 65 81.2 70.4 29.94 0.00 0.00 0.00 0.00 0.000
5:50am 21 0 0 41 65 81.2 70.5 29.94 0.00 0.00 0.00 0.00 0.000
5:52am 20 0 0 41 65 81.2 70.5 29.94 0.00 0.00 0.00 0.00 0.000
5:53am 20 0 0 41 65 81.2 70.6 29.94 0.00 0.00 0.00 0.00 0.000
5:54am 21 0 0 41 66 81.2 70.7 29.93 0.00 0.00 0.00 0.00 0.000
5:55am 20 0 0 41 65 81.0 70.7 29.94 0.00 0.00 0.00 0.00 0.000
5:56am 20 0 0 41 65 81.0 70.8 29.93 0.00 0.00 0.00 0.00 0.000
5:57am 21 0 0 41 65 81.0 70.8 29.93 0.00 0.00 0.00 0.00 0.000
5:58am 21 0 0 41 65 81.0 70.8 29.93 0.00 0.00 0.00 0.00 0.000
5:59am 21 2 3 41 65 81.0 70.7 29.93 0.00 0.00 0.00 0.00 0.000
6:00am 21 1 3 41 64 81.0 70.6 29.94 0.00 0.00 0.00 0.00 0.000
6:01am 20 0 2 41 64 81.0 70.5 29.94 0.00 0.00 0.00 0.00 0.000
6:02am 20 1 2 41 64 81.0 70.4 29.94 0.00 0.00 0.00 0.00 0.000
6:03am 21 2 2 41 64 81.0 70.3 29.94 0.00 0.00 0.00 0.00 0.000
6:04am 21 1 2 41 65 81.0 70.2 29.94 0.00 0.00 0.00 0.00 0.000
6:05am 21 0 2 41 65 81.0 70.1 29.94 0.00 0.00 0.00 0.00 0.000
6:06am 21 0 2 41 65 81.0 70.0 29.94 0.00 0.00 0.00 0.00 0.000
6:07am 21 0 2 41 64 81.0 70.0 29.94 0.00 0.00 0.00 0.00 0.000
6:08am 20 0 2 41 64 81.0 70.0 29.94 0.00 0.00 0.00 0.00 0.000
6:09am 20 0 2 41 65 81.0 70.0 29.94 0.00 0.00 0.00 0.00 0.000
6:10am 21 0 2 41 65 81.0 70.0 29.94 0.00 0.00 0.00 0.00 0.000
6:11am 21 0 2 41 65 81.0 70.1 29.94 0.00 0.00 0.00 0.00 0.000
6:12am 21 0 2 41 65 81.0 70.2 29.94 0.00 0.00 0.00 0.00 0.000
6:13am 21 0 2 41 65 81.0 70.4 29.94 0.00 0.00 0.00 0.00 0.000
6:14am 21 0 2 41 65 81.0 70.5 29.94 0.00 0.00 0.00 0.00 0.000
6:15am 20 0 2 41 65 81.0 70.6 29.94 0.00 0.00 0.00 0.00 0.000
6:16am 20 0 0 41 65 81.0 70.6 29.94 0.00 0.00 0.00 0.00 0.000
6:17am 21 0 0 41 65 81.0 70.7 29.94 0.00 0.00 0.00 0.00 0.000
6:18am 21 0 0 41 65 81.0 70.7 29.94 0.00 0.00 0.00 0.00 0.000
6:19am 21 0 0 41 65 81.0 70.8 29.94 0.00 0.00 0.00 0.00 0.000
6:20am 21 0 1 41 65 81.0 70.8 29.94 0.00 0.00 0.00 0.00 0.000
6:21am 21 0 1 41 64 81.0 70.8 29.94 0.00 0.00 0.00 0.00 0.000
6:22am 20 0 1 41 64 81.0 70.8 29.94 0.00 0.00 0.00 0.00 0.000
6:23am 20 0 1 41 63 81.0 70.7 29.94 0.00 0.00 0.00 0.00 0.000
6:24am 20 0 1 41 63 81.0 70.7 29.94 0.00 0.00 0.00 0.00 0.000
6:24am 21 1 1 41 63 81.0 70.7 29.94 0.00 0.00 0.00 0.00 0.000
6:26am 21 1 1 41 63 81.0 70.6 29.94 0.00 0.00 0.00 0.00 0.000
6:27am 21 1 1 41 63 81.0 70.7 29.94 0.00 0.00 0.00 0.00 0.000
6:28am 21 0 1 41 64 81.0 70.7 29.94 0.00 0.00 0.00 0.00 0.000
6:29am 21 0 1 41 64 81.0 70.8 29.94 0.00 0.00 0.00 0.00 0.000
6:30am 20 0 1 41 65 81.0 70.9 29.94 0.00 0.00 0.00 0.00 0.000
6:31am 20 1 1 41 64 81.0 70.9 29.94 0.00 0.00 0.00 0.00 0.000
6:32am 21 0 1 41 64 81.0 70.9 29.94 0.00 0.00 0.00 0.00 0.000
6:33am 21 1 1 41 64 81.0 70.9 29.94 0.00 0.00 0.00 0.00 0.000
6:34am 21 0 1 41 63 81.0 70.9 29.94 0.00 0.00 0.00 0.00 0.000
6:35am 21 1 1 41 63 81.0 70.9 29.94 0.00 0.00 0.00 0.00 0.000
6:36am 20 0 1 41 63 81.0 70.9 29.94 0.00 0.00 0.00 0.00 0.000
6:37am 20 0 1 41 63 81.0 70.9 29.94 0.00 0.00 0.00 0.00 0.000
6:38am 21 0 1 41 64 81.0 71.0 29.94 0.00 0.00 0.00 0.00 0.000
6:39am 21 0 1 41 64 81.0 71.1 29.94 0.00 0.00 0.00 0.00 0.000
6:40am 21 0 1 41 64 81.0 71.3 29.94 0.00 0.00 0.00 0.00 0.000
6:41am 21 0 1 41 64 81.0 71.4 29.94 0.00 0.00 0.00 0.00 0.000
6:42am 20 0 1 41 64 81.0 71.5 29.94 0.00 0.00 0.00 0.00 0.000
6:43am 20 0 1 41 64 81.0 71.5 29.94 0.00 0.00 0.00 0.00 0.000
6:44am 21 0 1 41 63 81.0 71.6 29.94 0.00 0.00 0.00 0.00 0.000
6:45am 21 0 1 41 63 81.0 71.7 29.94 0.00 0.00 0.00 0.00 0.000
6:46am 21 0 0 41 63 80.8 71.9 29.94 0.00 0.00 0.00 0.00 0.000
6:47am 21 1 1 41 63 80.8 72.0 29.94 0.00 0.00 0.00 0.00 0.000
6:48am 21 0 1 41 62 80.8 72.1 29.94 0.00 0.00 0.00 0.00 0.000
6:49am 20 0 1 41 62 80.8 72.3 29.94 0.00 0.00 0.00 0.00 0.000
6:50am 21 0 1 41 61 80.8 72.4 29.95 0.00 0.00 0.00 0.00 0.000
6:51am 21 0 1 41 61 80.8 72.6 29.95 0.00 0.00 0.00 0.00 0.000
6:52am 21 0 1 41 61 80.8 72.7 29.95 0.00 0.00 0.00 0.00 0.000
6:53am 21 0 1 41 61 80.8 73.0 29.95 0.00 0.00 0.00 0.00 0.000
6:54am 21 1 1 41 60 80.8 73.1 29.95 0.00 0.00 0.00 0.00 0.000
6:55am 21 0 1 41 60 80.8 73.2 29.95 0.00 0.00 0.00 0.00 0.000
6:56am 20 0 1 41 60 80.8 73.4 29.95 0.00 0.00 0.00 0.00 0.000
6:57am 21 0 1 41 59 80.8 73.5 29.95 0.00 0.00 0.00 0.00 0.000
6:58am 21 0 1 41 59 80.8 73.6 29.94 0.00 0.00 0.00 0.00 0.000
6:59am 21 0 1 41 59 80.8 73.8 29.94 0.00 0.00 0.00 0.00 0.000
7:00am 21 0 1 41 59 80.8 73.9 29.94 0.00 0.00 0.00 0.00 0.000
7:01am 21 0 0 41 59 80.8 74.0 29.95 0.00 0.00 0.00 0.00 0.000
7:02am 21 0 0 41 59 80.8 74.1 29.95 0.00 0.00 0.00 0.00 0.000
7:03am 20 0 0 41 59 80.8 74.2 29.95 0.00 0.00 0.00 0.00 0.000
7:04am 21 0 0 41 59 80.8 74.3 29.95 0.00 0.00 0.00 0.00 0.000
7:05am 20 0 0 41 59 80.8 74.4 29.95 0.00 0.00 0.00 0.00 0.000
7:06am 21 0 0 41 59 80.8 74.6 29.95 0.00 0.00 0.00 0.00 0.000
7:07am 21 0 0 41 59 80.8 74.7 29.95 0.00 0.00 0.00 0.00 0.000
7:08am 21 0 0 41 59 80.8 74.8 29.95 0.00 0.00 0.00 0.00 0.000
7:09am 20 0 0 41 59 80.8 74.9 29.95 0.00 0.00 0.00 0.00 0.000
7:10am 20 0 0 41 59 80.8 75.0 29.95 0.00 0.00 0.00 0.00 0.000
7:11am 20 0 0 41 59 80.8 75.0 29.95 0.00 0.00 0.00 0.00 0.000
7:12am 20 0 0 41 59 80.8 75.1 29.95 0.00 0.00 0.00 0.00 0.000
7:13am 21 0 0 41 59 80.8 75.1 29.95 0.00 0.00 0.00 0.00 0.000
7:14am 21 0 0 41 59 80.8 75.2 29.95 0.00 0.00 0.00 0.00 0.000
7:15am 21 0 0 41 59 80.8 75.2 29.95 0.00 0.00 0.00 0.00 0.000
7:16am 20 0 0 41 60 80.8 75.3 29.95 0.00 0.00 0.00 0.00 0.000
7:17am 20 0 0 41 60 80.8 75.3 29.95 0.00 0.00 0.00 0.00 0.000
7:18am 20 0 0 41 60 80.8 75.3 29.95 0.00 0.00 0.00 0.00 0.000
7:19am 21 0 0 41 60 80.8 75.4 29.95 0.00 0.00 0.00 0.00 0.000
7:20am 21 0 0 41 60 80.8 75.4 29.95 0.00 0.00 0.00 0.00 0.000
7:20am 20 0 0 41 60 80.8 75.4 29.95 0.00 0.00 0.00 0.00 0.000
7:22am 21 0 0 41 60 80.8 75.5 29.95 0.00 0.00 0.00 0.00 0.000
7:23am 20 0 0 41 59 80.8 75.5 29.95 0.00 0.00 0.00 0.00 0.000
7:24am 20 0 1 41 59 80.8 75.5 29.95 0.00 0.00 0.00 0.00 0.000
7:25am 21 0 1 41 59 80.8 75.6 29.95 0.00 0.00 0.00 0.00 0.000
7:26am 21 1 1 41 59 80.8 75.7 29.95 0.00 0.00 0.00 0.00 0.000
7:27am 21 1 1 41 59 80.8 75.7 29.95 0.00 0.00 0.00 0.00 0.000
7:28am 21 0 1 41 59 80.8 75.8 29.95 0.00 0.00 0.00 0.00 0.000
7:29am 21 0 1 41 59 80.8 75.8 29.95 0.00 0.00 0.00 0.00 0.000
7:29am 20 1 1 41 59 80.8 75.8 29.96 0.00 0.00 0.00 0.00 0.000
7:31am 20 0 1 41 59 80.8 75.8 29.96 0.00 0.00 0.00 0.00 0.000
7:32am 21 0 1 41 59 80.8 75.8 29.96 0.00 0.00 0.00 0.00 0.000
7:33am 21 0 1 41 59 80.8 75.8 29.96 0.00 0.00 0.00 0.00 0.000
7:34am 21 0 1 41 59 80.8 75.8 29.96 0.00 0.00 0.00 0.00 0.000
7:35am 20 0 1 41 59 80.8 75.9 29.96 0.00 0.00 0.00 0.00 0.000
7:36am 21 0 1 41 59 80.8 76.0 29.96 0.00 0.00 0.00 0.00 0.000
7:37am 20 0 1 41 59 80.8 76.0 29.96 0.00 0.00 0.00 0.00 0.000
7:38am 20 0 1 41 59 80.8 76.1 29.95 0.00 0.00 0.00 0.00 0.000
7:39am 21 0 1 41 59 80.8 76.1 29.95 0.00 0.00 0.00 0.00 0.000
7:40am 21 0 1 41 59 80.8 76.2 29.95 0.00 0.00 0.00 0.00 0.000
7:41am 21 0 1 41 60 80.8 76.3 29.96 0.00 0.00 0.00 0.00 0.000
7:42am 21 0 1 41 60 80.8 76.4 29.96 0.00 0.00 0.00 0.00 0.000
7:43am 21 0 1 41 59 80.8 76.5 29.96 0.00 0.00 0.00 0.00 0.000
7:44am 20 0 1 41 59 80.8 76.6 29.95 0.00 0.00 0.00 0.00 0.000
7:45am 20 0 1 41 59 80.8 76.7 29.95 0.00 0.00 0.00 0.00 0.000
7:46am 20 0 0 41 58 80.8 76.8 29.95 0.00 0.00 0.00 0.00 0.000
7:47am 21 0 0 41 58 80.8 76.9 29.95 0.00 0.00 0.00 0.00 0.000
7:48am 21 0 1 41 58 80.8 77.0 29.96 0.00 0.00 0.00 0.00 0.000
7:49am 21 1 1 41 58 80.8 77.1 29.96 0.00 0.00 0.00 0.00 0.000
7:50am 21 0 1 41 58 80.8 77.1 29.96 0.00 0.00 0.00 0.00 0.000
7:51am 20 1 1 41 58 80.8 77.2 29.96 0.00 0.00 0.00 0.00 0.000
7:52am 20 0 1 41 58 80.8 77.2 29.96 0.00 0.00 0.00 0.00 0.000
7:53am 20 1 1 41 58 80.8 77.3 29.96 0.00 0.00 0.00 0.00 0.000
7:54am 21 1 1 41 58 80.8 77.4 29.96 0.00 0.00 0.00 0.00 0.000
7:55am 21 0 2 41 57 80.8 77.5 29.96 0.00 0.00 0.00 0.00 0.000
7:56am 21 1 2 41 57 80.8 77.5 29.96 0.00 0.00 0.00 0.00 0.000
7:57am 21 0 2 41 57 80.8 77.6 29.96 0.00 0.00 0.00 0.00 0.000
7:58am 20 0 2 41 57 80.8 77.8 29.96 0.00 0.00 0.00 0.00 0.000
7:59am 20 0 2 41 57 80.8 77.9 29.96 0.00 0.00 0.00 0.00 0.000
8:00am 20 0 2 41 56 80.8 78.1 29.96 0.00 0.00 0.00 0.00 0.000
8:01am 21 1 1 41 56 80.8 78.1 29.96 0.00 0.00 0.00 0.00 0.000
8:01am 20 0 1 41 55 80.8 78.2 29.97 0.00 0.00 0.00 0.00 0.000
8:03am 21 0 1 41 55 80.8 78.2 29.97 0.00 0.00 0.00 0.00 0.000
8:04am 20 1 1 41 54 80.8 78.3 29.97 0.00 0.00 0.00 0.00 0.000
8:05am 20 1 2 41 54 80.8 78.4 29.97 0.00 0.00 0.00 0.00 0.000
8:06am 22 2 2 42 54 80.8 78.5 29.97 0.00 0.00 0.00 0.00 0.000
8:07am 22 0 2 42 53 80.8 78.6 29.97 0.00 0.00 0.00 0.00 0.000
8:08am 22 1 2 42 53 80.8 78.7 29.97 0.00 0.00 0.00 0.00 0.000
8:09am 22 1 2 42 53 80.8 78.8 29.97 0.00 0.00 0.00 0.00 0.000
8:10am 22 0 2 42 53 80.8 78.9 29.97 0.00 0.00 0.00 0.00 0.000
8:11am 22 0 2 42 52 80.8 79.0 29.97 0.00 0.00 0.00 0.00 0.000
8:12am 22 0 2 42 52 80.8 79.0 29.97 0.00 0.00 0.00 0.00 0.000
8:13am 22 0 2 42 52 80.8 79.0 29.97 0.00 0.00 0.00 0.00 0.000
8:14am 22 0 2 42 51 80.8 79.0 29.97 0.00 0.00 0.00 0.00 0.000
8:15am 22 0 2 42 51 80.8 79.0 29.97 0.00 0.00 0.00 0.00 0.000
8:16am 22 1 2 42 51 80.8 79.2 29.97 0.00 0.00 0.00 0.00 0.000
8:17am 22 1 2 42 52 81.0 79.3 29.97 0.00 0.00 0.00 0.00 0.000
8:18am 22 0 2 42 51 81.0 79.4 29.97 0.00 0.00 0.00 0.00 0.000
8:19am 22 0 2 42 50 81.0 79.4 29.97 0.00 0.00 0.00 0.00 0.000
8:20am 22 0 2 41 50 81.0 79.5 29.97 0.00 0.00 0.00 0.00 0.000
8:21am 22 0 2 41 50 81.0 79.7 29.97 0.00 0.00 0.00 0.00 0.000
8:22am 22 0 2 41 50 81.0 79.9 29.97 0.00 0.00 0.00 0.00 0.000
8:23am 22 0 2 41 50 81.0 80.0 29.97 0.00 0.00 0.00 0.00 0.000
8:24am 22 0 2 41 50 81.0 80.2 29.97 0.00 0.00 0.00 0.00 0.000
8:25am 22 0 2 41 49 81.0 80.3 29.97 0.00 0.00 0.00 0.00 0.000
8:25am 22 0 2 41 49 81.0 80.3 29.97 0.00 0.00 0.00 0.00 0.000
8:27am 22 0 2 41 49 81.0 80.4 29.98 0.00 0.00 0.00 0.00 0.000
8:28am 22 1 2 41 49 81.0 80.5 29.98 0.00 0.00 0.00 0.00 0.000
8:29am 22 1 2 41 49 81.0 80.5 29.97 0.00 0.00 0.00 0.00 0.000
8:30am 22 0 2 41 49 81.0 80.5 29.97 0.00 0.00 0.00 0.00 0.000
8:31am 22 0 1 42 49 81.0 80.7 29.97 0.00 0.00 0.00 0.00 0.000
8:32am 22 0 1 42 49 81.0 80.8 29.97 0.00 0.00 0.00 0.00 0.000
8:33am 22 0 1 42 49 81.0 80.9 29.97 0.00 0.00 0.00 0.00 0.000
8:34am 22 0 1 42 49 81.2 80.9 29.97 0.00 0.00 0.00 0.00 0.000
8:35am 22 1 3 42 49 81.2 80.9 29.97 0.00 0.00 0.00 0.00 0.000
8:36am 23 2 3 42 50 81.2 80.8 29.97 0.00 0.00 0.00 0.00 0.000
8:37am 23 2 3 42 50 81.2 80.7 29.97 0.00 0.00 0.00 0.00 0.000
8:38am 23 1 3 42 50 81.2 80.6 29.97 0.00 0.00 0.00 0.00 0.000
8:39am 23 0 3 42 51 81.2 80.5 29.98 0.00 0.00 0.00 0.00 0.000
8:40am 24 1 3 42 51 81.2 80.5 29.97 0.00 0.00 0.00 0.00 0.000
8:41am 25 0 3 42 51 81.2 80.5 29.97 0.00 0.00 0.00 0.00 0.000
8:42am 25 1 3 42 51 81.2 80.6 29.97 0.00 0.00 0.00 0.00 0.000
8:43am 25 0 3 41 51 81.4 80.6 29.97 0.00 0.00 0.00 0.00 0.000
8:44am 26 0 3 41 51 81.4 80.6 29.98 0.00 0.00 0.00 0.00 0.000
8:45am 26 1 3 41 51 81.4 80.8 29.98 0.00 0.00 0.00 0.00 0.000
8:46am 26 3 4 41 51 81.4 80.9 29.98 0.00 0.00 0.00 0.00 0.000
8:47am 26 2 4 41 51 81.4 81.0 29.98 0.00 0.00 0.00 0.00 0.000
8:48am 26 2 4 41 50 81.4 81.0 29.98 0.00 0.00 0.00 0.00 0.000
8:49am 26 2 4 41 50 81.4 81.1 29.98 0.00 0.00 0.00 0.00 0.000
8:50am 26 0 4 41 50 81.4 81.1 29.98 0.00 0.00 0.00 0.00 0.000
8:51am 26 0 4 41 49 81.5 81.2 29.98 0.00 0.00 0.00 0.00 0.000
8:52am 26 1 4 41 50 81.5 81.2 29.98 0.00 0.00 0.00 0.00 0.000
8:53am 26 2 4 42 49 81.5 81.2 29.98 0.00 0.00 0.00 0.00 0.000
8:54am 26 1 4 42 50 81.5 81.2 29.98 0.00 0.00 0.00 0.00 0.000
8:55am 27 2 4 42 50 81.5 81.2 29.98 0.00 0.00 0.00 0.00 0.000
8:56am 53 2 4 42 49 81.5 81.3 29.98 0.00 0.00 0.00 0.00 0.000
8:57am 198 4 4 42 49 81.5 81.3 29.98 0.00 0.00 0.00 0.00 0.000
8:58am 198 3 4 42 49 81.5 81.3 29.98 0.00 0.00 0.00 0.00 0.000
8:59am 198 2 4 42 50 81.7 81.3 29.98 0.00 0.00 0.00 0.00 0.000
9:00am 198 0 4 42 49 81.7 81.3 29.98 0.00 0.00 0.00 0.00 0.000
9:01am 198 1 3 42 49 81.7 81.4 29.98 0.00 0.00 0.00 0.00 0.000
9:01am 198 1 3 42 49 81.7 81.4 29.98 0.00 0.00 0.00 0.00 0.000
9:03am 198 0 3 42 48 81.7 81.5 29.98 0.00 0.00 0.00 0.00 0.000
9:04am 198 0 3 41 48 81.7 81.7 29.98 0.00 0.00 0.00 0.00 0.000
9:05am 198 0 3 41 48 81.9 81.9 29.98 0.00 0.00 0.00 0.00 0.000
9:06am 212 4 4 41 48 81.9 82.1 29.98 0.00 0.00 0.00 0.00 0.000
9:07am 212 0 4 41 48 81.9 82.2 29.98 0.00 0.00 0.00 0.00 0.000
9:08am 212 0 4 41 48 81.9 82.4 29.98 0.00 0.00 0.00 0.00 0.000
9:09am 212 2 4 41 48 81.9 82.5 29.98 0.00 0.00 0.00 0.00 0.000
9:10am 212 4 4 41 47 82.1 82.5 29.98 0.00 0.00 0.00 0.00 0.000
9:11am 212 2 4 41 47 82.1 82.5 29.98 0.00 0.00 0.00 0.00 0.000
9:12am 212 1 4 41 47 82.1 82.5 29.98 0.00 0.00 0.00 0.00 0.000
9:13am 211 1 4 41 47 82.1 82.4 29.98 0.00 0.00 0.00 0.00 0.000
9:14am 211 0 4 41 47 82.1 82.5 29.98 0.00 0.00 0.00 0.00 0.000
9:15am 211 3 4 41 47 82.1 82.5 29.98 0.00 0.00 0.00 0.00 0.000
9:16am 212 2 3 41 47 82.1 82.6 29.98 0.00 0.00 0.00 0.00 0.000
9:17am 212 2 3 41 47 82.3 82.6 29.98 0.00 0.00 0.00 0.00 0.000
9:18am 212 2 3 41 46 82.3 82.7 29.98 0.00 0.00 0.00 0.00 0.000
9:19am 212 1 3 41 46 82.3 82.8 29.98 0.00 0.00 0.00 0.00 0.000
9:20am 211 1 3 41 45 82.3 82.9 29.98 0.00 0.00 0.00 0.00 0.000
9:21am 211 1 3 41 45 82.3 82.9 29.98 0.00 0.00 0.00 0.00 0.000
9:22am 212 0 3 41 44 82.5 82.9 29.98 0.00 0.00 0.00 0.00 0.000
9:23am 212 0 3 41 45 82.5 82.9 29.98 0.00 0.00 0.00 0.00 0.000
9:24am 212 0 3 41 45 82.5 83.1 29.98 0.00 0.00 0.00 0.00 0.000
9:25am 212 0 3 41 45 82.5 83.2 29.98 0.00 0.00 0.00 0.00 0.000
9:26am 212 0 3 41 45 82.5 83.4 29.98 0.00 0.00 0.00 0.00 0.000
9:27am 211 2 3 41 46 82.7 83.7 29.98 0.00 0.00 0.00 0.00 0.000
9:28am 212 3 4 41 45 82.7 83.8 29.98 0.00 0.00 0.00 0.00 0.000
9:29am 212 3 4 41 45 82.7 83.8 29.98 0.00 0.00 0.00 0.00 0.000
9:30am 212 2 4 41 45 82.7 83.8 29.98 0.00 0.00 0.00 0.00 0.000
9:31am 212 4 4 41 45 82.7 83.8 29.98 0.00 0.00 0.00 0.00 0.000
9:32am 212 2 4 41 45 82.7 83.8 29.98 0.00 0.00 0.00 0.00 0.000
9:33am 211 0 4 41 45 82.7 83.8 29.98 0.00 0.00 0.00 0.00 0.000
9:34am 211 0 4 41 44 82.9 83.7 29.98 0.00 0.00 0.00 0.00 0.000
9:35am 212 1 4 41 45 82.9 83.7 29.98 0.00 0.00 0.00 0.00 0.000
9:35am 212 2 4 41 45 82.9 83.8 29.98 0.00 0.00 0.00 0.00 0.000
9:37am 212 2 4 41 45 82.9 83.8 29.98 0.00 0.00 0.00 0.00 0.000
9:38am 212 2 4 41 44 82.9 83.9 29.98 0.00 0.00 0.00 0.00 0.000
9:39am 211 3 4 41 44 82.9 83.9 29.98 0.00 0.00 0.00 0.00 0.000
9:39am 212 0 4 41 44 83.0 83.9 29.98 0.00 0.00 0.00 0.00 0.000
9:41am 211 2 4 41 44 83.0 84.1 29.98 0.00 0.00 0.00 0.00 0.000
9:42am 212 3 4 41 44 83.0 84.1 29.98 0.00 0.00 0.00 0.00 0.000
9:43am 211 2 4 41 43 83.0 84.2 29.98 0.00 0.00 0.00 0.00 0.000
9:43am 212 0 4 41 43 83.0 84.3 29.98 0.00 0.00 0.00 0.00 0.000
9:45am 212 0 4 41 43 83.2 84.4 29.98 0.00 0.00 0.00 0.00 0.000
9:46am 212 1 2 41 43 83.2 84.4 29.98 0.00 0.00 0.00 0.00 0.000
9:47am 211 1 2 41 43 83.2 84.4 29.98 0.00 0.00 0.00 0.00 0.000
9:48am 211 2 2 41 43 83.2 84.4 29.98 0.00 0.00 0.00 0.00 0.000
9:49am 211 2 3 41 43 83.2 84.5 29.98 0.00 0.00 0.00 0.00 0.000
9:50am 211 0 3 41 42 83.4 84.7 29.97 0.00 0.00 0.00 0.00 0.000
9:51am 211 1 3 40 41 83.4 84.8 29.97 0.00 0.00 0.00 0.00 0.000
9:52am 211 0 3 40 42 83.4 84.9 29.97 0.00 0.00 0.00 0.00 0.000
9:53am 212 0 3 40 42 83.4 85.1 29.97 0.00 0.00 0.00 0.00 0.000
9:54am 212 2 3 40 42 83.4 85.3 29.97 0.00 0.00 0.00 0.00 0.000
9:55am 211 1 3 40 41 83.4 85.5 29.97 0.00 0.00 0.00 0.00 0.000
9:56am 211 1 3 40 41 83.6 85.6 29.97 0.00 0.00 0.00 0.00 0.000
9:57am 212 0 3 40 39 83.6 85.6 29.97 0.00 0.00 0.00 0.00 0.000
9:58am 211 2 3 40 39 83.6 85.6 29.97 0.00 0.00 0.00 0.00 0.000
9:59am 211 1 3 40 38 83.6 85.6 29.97 0.00 0.00 0.00 0.00 0.000
10:00am 211 1 3 40 38 83.6 85.6 29.97 0.00 0.00 0.00 0.00 0.000
10:01am 211 0 1 40 38 83.6 85.7 29.98 0.00 0.00 0.00 0.00 0.000
10:02am 211 0 2 40 38 83.8 85.9 29.98 0.00 0.00 0.00 0.00 0.000
10:03am 211 3 3 41 39 83.8 86.0 29.98 0.00 0.00 0.00 0.00 0.000
10:04am 199 3 4 41 39 83.8 86.2 29.98 0.00 0.00 0.00 0.00 0.000
10:05am 208 1 4 41 39 83.8 86.2 29.98 0.00 0.00 0.00 0.00 0.000
10:06am 211 1 4 41 40 84.0 86.3 29.98 0.00 0.00 0.00 0.00 0.000
10:07am 211 0 4 41 39 84.0 86.5 29.98 0.00 0.00 0.00 0.00 0.000
10:08am 211 1 4 41 39 84.0 86.6 29.98 0.00 0.00 0.00 0.00 0.000
10:09am 211 1 4 41 38 84.0 86.7 29.98 0.00 0.00 0.00 0.00 0.000
10:10am 203 5 5 40 38 84.0 86.7 29.97 0.00 0.00 0.00 0.00 0.000
10:11am 213 3 7 40 38 84.2 86.7 29.98 0.00 0.00 0.00 0.00 0.000
10:12am 213 1 7 40 38 84.2 86.7 29.97 0.00 0.00 0.00 0.00 0.000
10:13am 213 0 7 40 38 84.2 86.8 29.98 0.00 0.00 0.00 0.00 0.000
10:14am 213 0 7 40 38 84.2 86.9 29.98 0.00 0.00 0.00 0.00 0.000
10:15am 217 1 7 40 38 84.2 87.1 29.98 0.00 0.00 0.00 0.00 0.000
10:16am 211 3 4 40 39 84.2 87.2 29.98 0.00 0.00 0.00 0.00 0.000
10:17am 203 1 4 40 39 84.4 87.1 29.98 0.00 0.00 0.00 0.00 0.000
10:18am 203 0 4 40 39 84.4 87.1 29.98 0.00 0.00 0.00 0.00 0.000
10:19am 203 1 4 40 39 84.4 87.1 29.98 0.00 0.00 0.00 0.00 0.000
10:20am 203 0 4 40 39 84.4 87.1 29.98 0.00 0.00 0.00 0.00 0.000
10:21am 203 0 4 40 39 84.4 87.2 29.98 0.00 0.00 0.00 0.00 0.000
10:22am 203 0 4 40 38 84.4 87.3 29.98 0.00 0.00 0.00 0.00 0.000
10:23am 197 4 4 40 38 84.6 87.4 29.98 0.00 0.00 0.00 0.00 0.000
10:24am 213 3 7 40 39 84.6 87.3 29.98 0.00 0.00 0.00 0.00 0.000
10:25am 213 2 7 40 38 84.6 87.3 29.98 0.00 0.00 0.00 0.00 0.000
10:26am 215 2 7 40 38 84.6 87.2 29.98 0.00 0.00 0.00 0.00 0.000
10:27am 200 3 7 40 38 84.8 87.3 29.98 0.00 0.00 0.00 0.00 0.000
10:28am 213 5 7 40 38 84.8 87.3 29.98 0.00 0.00 0.00 0.00 0.000
10:29am 209 2 7 40 38 84.8 87.4 29.98 0.00 0.00 0.00 0.00 0.000
10:30am 205 2 7 40 38 84.8 87.4 29.98 0.00 0.00 0.00 0.00 0.000
10:31am 205 2 4 40 37 84.8 87.4 29.98 0.00 0.00 0.00 0.00 0.000
10:32am 205 1 4 40 37 84.8 87.4 29.98 0.00 0.00 0.00 0.00 0.000
10:33am 205 1 4 40 37 84.8 87.3 29.98 0.00 0.00 0.00 0.00 0.000
10:34am 205 1 4 40 37 85.0 87.3 29.98 0.00 0.00 0.00 0.00 0.000
10:35am 205 0 4 40 37 85.0 87.4 29.98 0.00 0.00 0.00 0.00 0.000
10:36am 205 0 4 40 37 85.0 87.4 29.98 0.00 0.00 0.00 0.00 0.000
10:37am 190 4 5 40 37 85.0 87.5 29.98 0.00 0.00 0.00 0.00 0.000
10:38am 190 3 5 40 37 85.0 87.6 29.98 0.00 0.00 0.00 0.00 0.000
10:39am 178 0 5 40 37 85.0 87.7 29.98 0.00 0.00 0.00 0.00 0.000
10:40am 178 0 5 40 37 85.0 87.8 29.98 0.00 0.00 0.00 0.00 0.000
10:40am 182 0 5 40 37 85.2 87.9 29.98 0.00 0.00 0.00 0.00 0.000
10:41am 182 0 5 40 36 85.2 88.2 29.98 0.00 0.00 0.00 0.00 0.000
10:43am 292 1 5 40 36 85.2 88.6 29.98 0.00 0.00 0.00 0.00 0.000
10:43am 287 0 5 40 36 85.2 88.8 29.98 0.00 0.00 0.00 0.00 0.000
10:45am 219 2 5 40 36 85.4 88.9 29.98 0.00 0.00 0.00 0.00 0.000
10:46am 224 1 4 40 37 85.4 89.1 29.98 0.00 0.00 0.00 0.00 0.000
10:47am 213 3 4 39 37 85.4 89.1 29.98 0.00 0.00 0.00 0.00 0.000
10:48am 146 4 4 39 37 85.4 89.0 29.98 0.00 0.00 0.00 0.00 0.000
10:49am 191 4 6 39 37 85.4 88.9 29.98 0.00 0.00 0.00 0.00 0.000
10:50am 211 3 6 39 38 85.4 88.8 29.98 0.00 0.00 0.00 0.00 0.000
10:51am 207 3 6 39 37 85.4 88.8 29.98 0.00 0.00 0.00 0.00 0.000
10:51am 226 2 6 39 38 85.6 88.8 29.98 0.00 0.00 0.00 0.00 0.000
10:53am 229 3 6 39 38 85.6 88.9 29.98 0.00 0.00 0.00 0.00 0.000
10:54am 229 0 6 39 37 85.6 89.0 29.98 0.00 0.00 0.00 0.00 0.000
10:55am 205 3 6 39 37 85.6 88.9 29.98 0.00 0.00 0.00 0.00 0.000
10:56am 205 0 6 39 36 85.6 88.8 29.98 0.00 0.00 0.00 0.00 0.000
10:57am 205 2 6 39 37 85.6 88.7 29.98 0.00 0.00 0.00 0.00 0.000
10:58am 194 2 6 39 38 85.6 88.6 29.98 0.00 0.00 0.00 0.00 0.000
10:59am 194 0 6 39 37 85.8 88.6 29.98 0.00 0.00 0.00 0.00 0.000
11:00am 198 4 6 39 37 85.8 88.7 29.98 0.00 0.00 0.00 0.00 0.000
11:01am 199 3 5 39 36 85.8 88.6 29.98 0.00 0.00 0.00 0.00 0.000
11:02am 234 3 5 39 37 85.8 88.8 29.98 0.00 0.00 0.00 0.00 0.000
11:03am 225 4 5 39 38 85.8 89.0 29.98 0.00 0.00 0.00 0.00 0.000
11:04am 193 3 5 39 37 85.8 89.0 29.98 0.00 0.00 0.00 0.00 0.000
11:05am 194 1 5 39 36 86.0 88.9 29.98 0.00 0.00 0.00 0.00 0.000
11:05am 193 0 5 39 36 86.0 88.7 29.98 0.00 0.00 0.00 0.00 0.000
11:07am 193 0 5 39 37 86.0 88.7 29.98 0.00 0.00 0.00 0.00 0.000
11:08am 193 0 5 39 37 86.0 88.7 29.98 0.00 0.00 0.00 0.00 0.000
11:09am 160 0 5 39 36 86.0 88.9 29.98 0.00 0.00 0.00 0.00 0.000
11:10am 217 1 5 39 36 86.0 89.1 29.98 0.00 0.00 0.00 0.00 0.000
11:11am 211 6 9 39 36 86.0 89.3 29.98 0.00 0.00 0.00 0.00 0.000
11:12am 229 4 9 38 36 86.2 89.4 29.98 0.00 0.00 0.00 0.00 0.000
11:13am 199 3 9 38 36 86.2 89.3 29.98 0.00 0.00 0.00 0.00 0.000
11:14am 213 3 9 38 36 86.2 89.4 29.98 0.00 0.00 0.00 0.00 0.000
11:15am 226 3 9 38 36 86.2 89.5 29.98 0.00 0.00 0.00 0.00 0.000
11:16am 233 1 5 39 36 86.2 89.5 29.98 0.00 0.00 0.00 0.00 0.000
11:17am 241 3 5 39 36 86.2 89.5 29.98 0.00 0.00 0.00 0.00 0.000
11:18am 203 3 5 39 36 86.2 89.6 29.98 0.00 0.00 0.00 0.00 0.000
11:19am 218 3 6 39 36 86.2 89.6 29.98 0.00 0.00 0.00 0.00 0.000
11:20am 196 1 6 39 36 86.4 89.7 29.98 0.00 0.00 0.00 0.00 0.000
11:21am 174 0 6 39 35 86.4 89.7 29.98 0.00 0.00 0.00 0.00 0.000
11:21am 151 2 6 39 35 86.4 89.7 29.98 0.00 0.00 0.00 0.00 0.000
11:23am 151 1 6 39 35 86.4 89.7 29.98 0.00 0.00 0.00 0.00 0.000
11:24am 148 2 6 38 35 86.4 89.8 29.98 0.00 0.00 0.00 0.00 0.000
11:25am 79 3 6 38 35 86.4 90.0 29.98 0.00 0.00 0.00 0.00 0.000
11:26am 88 2 6 38 34 86.4 90.3 29.98 0.00 0.00 0.00 0.00 0.000
11:27am 99 4 6 38 34 86.6 90.4 29.98 0.00 0.00 0.00 0.00 0.000
11:28am 57 1 6 38 34 86.6 90.4 29.97 0.00 0.00 0.00 0.00 0.000
11:29am 59 0 6 38 34 86.6 90.4 29.97 0.00 0.00 0.00 0.00 0.000
11:30am 59 0 6 38 35 86.6 90.5 29.97 0.00 0.00 0.00 0.00 0.000
11:31am 59 1 2 38 34 86.6 90.7 29.97 0.00 0.00 0.00 0.00 0.000
11:32am 204 3 5 38 35 86.6 90.8 29.97 0.00 0.00 0.00 0.00 0.000
11:33am 203 2 5 38 35 86.6 90.9 29.97 0.00 0.00 0.00 0.00 0.000
11:34am 167 2 5 38 34 86.8 90.8 29.97 0.00 0.00 0.00 0.00 0.000
11:35am 167 2 5 38 34 86.8 90.7 29.97 0.00 0.00 0.00 0.00 0.000
11:36am 153 4 5 38 34 86.8 90.7 29.97 0.00 0.00 0.00 0.00 0.000
11:37am 184 1 5 38 34 86.8 90.6 29.97 0.00 0.00 0.00 0.00 0.000
11:38am 146 1 5 38 33 86.8 90.5 29.97 0.00 0.00 0.00 0.00 0.000
11:39am 226 6 7 38 33 86.8 90.5 29.97 0.00 0.00 0.00 0.00 0.000
11:40am 228 3 7 38 34 87.0 90.5 29.97 0.00 0.00 0.00 0.00 0.000
11:40am 228 0 7 38 34 87.0 90.5 29.97 0.00 0.00 0.00 0.00 0.000
11:42am 228 2 7 38 34 87.0 90.5 29.97 0.00 0.00 0.00 0.00 0.000
11:43am 228 1 7 38 34 87.0 90.4 29.97 0.00 0.00 0.00 0.00 0.000
11:43am 232 4 7 38 33 87.0 90.4 29.97 0.00 0.00 0.00 0.00 0.000
11:45am 236 3 7 38 34 87.0 90.3 29.97 0.00 0.00 0.00 0.00 0.000
11:45am 236 0 3 38 34 87.0 90.4 29.97 0.00 0.00 0.00 0.00 0.000
11:47am 201 6 6 38 34 87.0 90.4 29.97 0.00 0.00 0.00 0.00 0.000
11:48am 203 5 7 38 34 87.0 90.4 29.97 0.00 0.00 0.00 0.00 0.000
11:49am 212 9 9 38 34 87.0 90.4 29.97 0.00 0.00 0.00 0.00 0.000
11:50am 203 5 10 38 34 87.2 90.3 29.97 0.00 0.00 0.00 0.00 0.000
11:51am 201 5 10 38 34 87.2 90.2 29.97 0.00 0.00 0.00 0.00 0.000
11:52am 192 3 10 38 33 87.2 90.2 29.97 0.00 0.00 0.00 0.00 0.000
11:53am 194 0 10 38 33 87.2 90.3 29.96 0.00 0.00 0.00 0.00 0.000
11:54am 192 1 10 38 33 87.2 90.4 29.96 0.00 0.00 0.00 0.00 0.000
11:55am 188 0 10 38 33 87.2 90.6 29.96 0.00 0.00 0.00 0.00 0.000
11:56am 188 0 10 38 34 87.2 90.8 29.96 0.00 0.00 0.00 0.00 0.000
11:57am 211 1 10 38 33 87.2 91.1 29.96 0.00 0.00 0.00 0.00 0.000
11:58am 216 2 10 38 34 87.4 91.4 29.96 0.00 0.00 0.00 0.00 0.000
11:59am 245 3 10 38 32 87.4 91.6 29.96 0.00 0.00 0.00 0.00 0.000
12:00pm 214 3 10 37 33 87.4 91.8 29.96 0.00 0.00 0.00 0.00 0.000
12:01pm 237 2 6 37 32 87.4 91.9 29.97 0.00 0.00 0.00 0.00 0.000
12:02pm 216 5 6 37 32 87.4 91.9 29.96 0.00 0.00 0.00 0.00 0.000
12:03pm 200 4 6 37 31 87.4 91.8 29.96 0.00 0.00 0.00 0.00 0.000
12:04pm 199 6 6 37 30 87.4 91.7 29.96 0.00 0.00 0.00 0.00 0.000
12:05pm 206 5 6 37 31 87.4 91.5 29.96 0.00 0.00 0.00 0.00 0.000
12:06pm 205 4 6 37 32 87.4 91.4 29.96 0.00 0.00 0.00 0.00 0.000
12:06pm 186 2 6 37 32 87.4 91.5 29.96 0.00 0.00 0.00 0.00 0.000
12:08pm 196 3 6 37 32 87.4 91.5 29.96 0.00 0.00 0.00 0.00 0.000
12:09pm 202 5 6 37 31 87.6 91.5 29.96 0.00 0.00 0.00 0.00 0.000
12:10pm 217 3 6 37 30 87.6 91.4 29.96 0.00 0.00 0.00 0.00 0.000
12:11pm 160 1 6 37 31 87.6 91.3 29.96 0.00 0.00 0.00 0.00 0.000
12:12pm 176 2 6 37 31 87.6 91.3 29.96 0.00 0.00 0.00 0.00 0.000
12:13pm 159 2 6 37 31 87.6 91.4 29.96 0.00 0.00 0.00 0.00 0.000
12:14pm 152 2 6 37 31 87.6 91.5 29.96 0.00 0.00 0.00 0.00 0.000
12:15pm 218 4 6 37 31 87.6 91.7 29.96 0.00 0.00 0.00 0.00 0.000
12:16pm 194 6 12 37 31 87.6 91.9 29.96 0.00 0.00 0.00 0.00 0.000
12:17pm 205 3 12 37 31 87.6 91.9 29.96 0.00 0.00 0.00 0.00 0.000
12:17pm 181 5 12 37 31 87.6 92.0 29.96 0.00 0.00 0.00 0.00 0.000
12:19pm 211 4 12 37 30 87.6 91.9 29.96 0.00 0.00 0.00 0.00 0.000
12:19pm 202 5 12 37 31 87.8 92.0 29.96 0.00 0.00 0.00 0.00 0.000
12:21pm 202 4 12 37 31 87.8 92.0 29.96 0.00 0.00 0.00 0.00 0.000
12:22pm 219 3 12 37 30 87.8 92.1 29.95 0.00 0.00 0.00 0.00 0.000
12:23pm 169 3 12 37 30 87.8 92.1 29.95 0.00 0.00 0.00 0.00 0.000
12:24pm 136 2 12 37 30 87.8 92.1 29.95 0.00 0.00 0.00 0.00 0.000
12:25pm 175 4 12 37 30 87.8 92.5 29.95 0.00 0.00 0.00 0.00 0.000
12:26pm 194 6 12 37 30 87.8 92.7 29.95 0.00 0.00 0.00 0.00 0.000
12:27pm 194 3 12 37 29 87.8 92.9 29.95 0.00 0.00 0.00 0.00 0.000
12:28pm 145 3 12 37 28 87.8 93.0 29.95 0.00 0.00 0.00 0.00 0.000
12:29pm 195 1 12 37 28 87.8 93.2 29.95 0.00 0.00 0.00 0.00 0.000
12:30pm 234 0 12 37 27 88.0 93.2 29.95 0.00 0.00 0.00 0.00 0.000
12:31pm 152 4 5 37 28 88.0 93.3 29.95 0.00 0.00 0.00 0.00 0.000
12:32pm 152 2 5 37 28 88.0 93.4 29.95 0.00 0.00 0.00 0.00 0.000
12:33pm 148 6 7 37 28 88.0 93.5 29.95 0.00 0.00 0.00 0.00 0.000
12:33pm 151 2 7 37 28 88.0 93.5 29.95 0.00 0.00 0.00 0.00 0.000
12:35pm 151 1 7 36 28 88.0 93.4 29.95 0.00 0.00 0.00 0.00 0.000
12:36pm 151 1 7 36 28 88.0 93.7 29.95 0.00 0.00 0.00 0.00 0.000
12:37pm 235 2 7 36 28 88.0 93.8 29.95 0.00 0.00 0.00 0.00 0.000
12:38pm 185 4 7 36 28 88.0 93.9 29.95 0.00 0.00 0.00 0.00 0.000
12:38pm 205 4 7 36 28 88.0 93.9 29.95 0.00 0.00 0.00 0.00 0.000
12:40pm 199 4 7 37 28 88.0 93.9 29.95 0.00 0.00 0.00 0.00 0.000
12:41pm 234 5 7 37 28 88.0 93.9 29.95 0.00 0.00 0.00 0.00 0.000
12:42pm 190 5 7 37 28 88.2 94.0 29.95 0.00 0.00 0.00 0.00 0.000
12:43pm 157 2 7 37 28 88.2 93.9 29.95 0.00 0.00 0.00 0.00 0.000
12:44pm 156 3 7 37 28 88.2 93.8 29.95 0.00 0.00 0.00 0.00 0.000
12:45pm 184 6 7 37 28 88.2 93.7 29.95 0.00 0.00 0.00 0.00 0.000
12:46pm 264 0 6 37 29 88.2 93.8 29.95 0.00 0.00 0.00 0.00 0.000
12:47pm 218 4 6 36 28 88.2 93.9 29.95 0.00 0.00 0.00 0.00 0.000
12:48pm 245 4 10 36 29 88.2 94.0 29.94 0.00 0.00 0.00 0.00 0.000
12:49pm 218 4 10 36 29 88.2 94.0 29.95 0.00 0.00 0.00 0.00 0.000
12:50pm 187 5 10 36 29 88.2 94.0 29.95 0.00 0.00 0.00 0.00 0.000
12:51pm 205 3 10 36 29 88.2 94.1 29.95 0.00 0.00 0.00 0.00 0.000
12:52pm 213 3 10 36 29 88.2 94.2 29.94 0.00 0.00 0.00 0.00 0.000
12:53pm 209 10 13 36 28 88.2 94.0 29.95 0.00 0.00 0.00 0.00 0.000
12:54pm 201 9 13 36 28 88.2 93.9 29.95 0.00 0.00 0.00 0.00 0.000
12:55pm 189 5 13 36 29 88.2 93.7 29.95 0.00 0.00 0.00 0.00 0.000
12:56pm 195 7 13 36 29 88.4 93.4 29.95 0.00 0.00 0.00 0.00 0.000
12:57pm 233 7 13 36 29 88.4 93.3 29.95 0.00 0.00 0.00 0.00 0.000
12:58pm 195 4 13 36 28 88.4 93.2 29.95 0.00 0.00 0.00 0.00 0.000
12:59pm 225 9 13 36 29 88.4 93.2 29.95 0.00 0.00 0.00 0.00 0.000
1:00pm 207 9 13 36 29 88.4 93.3 29.95 0.00 0.00 0.00 0.00 0.000
1:01pm 226 4 9 36 28 88.4 93.3 29.95 0.00 0.00 0.00 0.00 0.000
1:02pm 197 5 9 36 29 88.4 93.4 29.95 0.00 0.00 0.00 0.00 0.000
1:02pm 195 6 10 36 29 88.4 93.6 29.94 0.00 0.00 0.00 0.00 0.000
1:04pm 225 7 10 36 28 88.4 93.6 29.94 0.00 0.00 0.00 0.00 0.000
1:05pm 199 3 10 36 28 88.4 93.6 29.94 0.00 0.00 0.00 0.00 0.000
1:06pm 185 1 10 36 27 88.4 93.4 29.94 0.00 0.00 0.00 0.00 0.000
1:07pm 185 2 10 36 27 88.4 93.4 29.94 0.00 0.00 0.00 0.00 0.000
1:07pm 206 4 10 36 28 88.4 93.4 29.94 0.00 0.00 0.00 0.00 0.000
1:09pm 205 7 10 36 28 88.4 93.6 29.94 0.00 0.00 0.00 0.00 0.000
1:10pm 226 5 10 36 28 88.4 93.8 29.94 0.00 0.00 0.00 0.00 0.000
1:11pm 243 3 10 36 28 88.4 93.8 29.94 0.00 0.00 0.00 0.00 0.000
1:12pm 218 6 10 36 27 88.4 93.9 29.94 0.00 0.00 0.00 0.00 0.000
1:13pm 198 4 10 36 28 88.4 93.9 29.94 0.00 0.00 0.00 0.00 0.000
1:14pm 186 6 10 36 27 88.6 93.9 29.94 0.00 0.00 0.00 0.00 0.000
1:15pm 195 3 10 36 27 88.6 93.8 29.94 0.00 0.00 0.00 0.00 0.000
1:16pm 189 4 4 36 27 88.6 93.9 29.94 0.00 0.00 0.00 0.00 0.000
1:17pm 201 3 5 36 27 88.6 94.0 29.94 0.00 0.00 0.00 0.00 0.000
1:18pm 240 2 5 35 27 88.6 94.1 29.94 0.00 0.00 0.00 0.00 0.000
1:19pm 296 3 5 35 27 88.6 94.2 29.94 0.00 0.00 0.00 0.00 0.000
1:20pm 259 3 5 35 27 88.6 94.5 29.93 0.00 0.00 0.00 0.00 0.000
1:21pm 291 2 5 35 26 88.6 94.6 29.94 0.00 0.00 0.00 0.00 0.000
1:22pm 219 2 6 35 26 88.6 94.8 29.93 0.00 0.00 0.00 0.00 0.000
1:23pm 308 1 6 35 26 88.6 94.9 29.93 0.00 0.00 0.00 0.00 0.000
1:24pm 308 3 6 35 25 88.6 94.9 29.93 0.00 0.00 0.00 0.00 0.000
1:25pm 213 6 6 35 26 88.6 95.1 29.93 0.00 0.00 0.00 0.00 0.000
1:26pm 178 6 9 35 26 88.6 95.2 29.93 0.00 0.00 0.00 0.00 0.000
1:27pm 146 3 9 35 26 88.6 95.2 29.93 0.00 0.00 0.00 0.00 0.000
1:28pm 107 1 9 35 25 88.6 95.2 29.93 0.00 0.00 0.00 0.00 0.000
1:29pm 311 1 9 35 25 88.6 95.3 29.93 0.00 0.00 0.00 0.00 0.000
1:30pm 219 2 9 35 25 88.6 95.4 29.93 0.00 0.00 0.00 0.00 0.000
1:31pm 220 4 9 35 25 88.6 95.4 29.93 0.00 0.00 0.00 0.00 0.000
1:32pm 219 1 9 35 24 88.6 95.4 29.93 0.00 0.00 0.00 0.00 0.000
1:33pm 219 0 9 35 25 88.6 95.5 29.93 0.00 0.00 0.00 0.00 0.000
1:34pm 217 3 9 35 25 88.9 95.7 29.93 0.00 0.00 0.00 0.00 0.000
1:35pm 212 2 9 35 24 88.9 95.6 29.93 0.00 0.00 0.00 0.00 0.000
1:36pm 211 5 9 35 24 88.9 95.4 29.93 0.00 0.00 0.00 0.00 0.000
1:37pm 202 4 9 35 25 88.9 95.2 29.93 0.00 0.00 0.00 0.00 0.000
1:38pm 203 2 9 35 24 88.9 95.2 29.93 0.00 0.00 0.00 0.00 0.000
1:39pm 192 3 9 35 24 88.9 95.1 29.93 0.00 0.00 0.00 0.00 0.000
1:40pm 192 2 9 35 24 88.9 95.0 29.92 0.00 0.00 0.00 0.00 0.000
1:41pm 207 4 9 35 24 88.9 95.0 29.93 0.00 0.00 0.00 0.00 0.000
1:42pm 209 4 9 35 25 88.9 95.1 29.93 0.00 0.00 0.00 0.00 0.000
1:43pm 191 3 9 35 24 88.9 95.1 29.93 0.00 0.00 0.00 0.00 0.000
1:44pm 199 2 9 35 24 88.9 94.9 29.92 0.00 0.00 0.00 0.00 0.000
1:44pm 200 0 9 35 24 88.9 94.8 29.92 0.00 0.00 0.00 0.00 0.000
1:46pm